Zurück zum Katalog

STARLINK-31218

AktivKommunikationVLEO
NORAD 58895·PAYLOAD·🇺🇸 United States

Gestartet Jan 29, 2024 von Vandenberg Space Force Base

Loading…

Nächste Überflüge (nächste 24 Stunden)

TLE

AktuellSource: CelesTrak SupGP

Epoche: Sep 14, 2026, 14:32 UTC

1 58895C 24020V   26257.60604167  .00066757  00000+0  21475-2 0  2573
2 58895  53.1583 163.5696 0001330  87.0519 290.5231 15.31657631    16

Verfolge STARLINK-31218 in Echtzeit mit AllMySat

Download on the App Store